• In Schweiz
  • Länderverzeichnis
  • Für 7 Tage
  • Wassertemperatur
  • Satellitenkarten
  • Wetterkarte
  • Widgets
  • user-avatar
    Anmelden

    Stündliche Wetter Invercargill

    Heute, 23 November, Donnerstag

    Zeit Temperatur Niederschläge Wind Luftdruck Luftfeuchtigkeit
    00:00 +12°C° 0 mm 2 m/S 768 mmHg 99%
    01:00 +12°C° 0 mm 1 m/S 768 mmHg 99%
    02:00 +12°C° 0 mm 1 m/S 768 mmHg 98%
    03:00 +12°C° 0 mm 1 m/S 768 mmHg 98%
    04:00 +12°C° 0 mm 1 m/S 768 mmHg 98%
    05:00 +13°C° 0 mm 1 m/S 768 mmHg 96%
    06:00 +16°C° 0 mm 1 m/S 768 mmHg 87%
    07:00 +19°C° 0 mm 1 m/S 768 mmHg 77%
    08:00 +22°C° 0 mm 1 m/S 768 mmHg 68%
    09:00 +23°C° 0 mm 1 m/S 768 mmHg 64%
    10:00 +24°C° 0 mm 2 m/S 768 mmHg 60%
    11:00 +25°C° 0 mm 2 m/S 768 mmHg 57%
    12:00 +25°C° 0 mm 2 m/S 768 mmHg 56%
    13:00 +25°C° 0 mm 2 m/S 767 mmHg 56%
    14:00 +25°C° 0 mm 3 m/S 767 mmHg 56%
    15:00 +24°C° 0 mm 3 m/S 767 mmHg 60%
    16:00 +23°C° 0 mm 2 m/S 767 mmHg 64%
    17:00 +19°C° 0 mm 2 m/S 767 mmHg 76%
    18:00 +18°C° 0 mm 2 m/S 768 mmHg 82%
    19:00 +16°C° 0 mm 1 m/S 768 mmHg 87%
    20:00 +15°C° 0 mm 1 m/S 768 mmHg 93%
    21:00 +15°C° 0 mm 1 m/S 768 mmHg 94%
    22:00 +14°C° 0 mm 1 m/S 768 mmHg 95%
    23:00 +13°C° 0 mm 0 m/S 768 mmHg 95%

    Morgen, 24 November, Freitag

    Zeit Temperatur Niederschläge Wind Luftdruck Luftfeuchtigkeit
    00:00 +13°C° 0 mm 0 m/S 768 mmHg 95%
    01:00 +14°C° 0 mm 1 m/S 767 mmHg 96%
    02:00 +14°C° 0 mm 1 m/S 767 mmHg 96%
    03:00 +14°C° 0 mm 1 m/S 767 mmHg 96%
    04:00 +14°C° 0 mm 1 m/S 767 mmHg 95%
    05:00 +14°C° 0 mm 1 m/S 768 mmHg 95%
    06:00 +15°C° 0 mm 1 m/S 768 mmHg 90%
    07:00 +16°C° 0 mm 1 m/S 768 mmHg 85%
    08:00 +18°C° 0 mm 1 m/S 768 mmHg 80%
    09:00 +19°C° 0 mm 1 m/S 768 mmHg 72%
    10:00 +19°C° 0 mm 2 m/S 767 mmHg 64%
    11:00 +21°C° 0 mm 2 m/S 767 mmHg 57%
    12:00 +21°C° 0 mm 2 m/S 767 mmHg 54%
    13:00 +23°C° 0 mm 2 m/S 767 mmHg 52%
    14:00 +22°C° 0 mm 3 m/S 767 mmHg 49%
    15:00 +22°C° 0 mm 3 m/S 767 mmHg 53%
    16:00 +21°C° 0 mm 3 m/S 767 mmHg 56%
    17:00 +20°C° 0 mm 3 m/S 767 mmHg 59%
    18:00 +18°C° 0 mm 2 m/S 767 mmHg 68%
    19:00 +16°C° 0 mm 2 m/S 768 mmHg 77%
    20:00 +14°C° 0 mm 1 m/S 768 mmHg 86%
    21:00 +14°C° 0 mm 1 m/S 768 mmHg 88%
    22:00 +14°C° 0 mm 1 m/S 768 mmHg 89%
    23:00 +13°C° 0 mm 1 m/S 769 mmHg 90%

    übermorgen, 25 November, Samstag

    Zeit Temperatur Niederschläge Wind Luftdruck Luftfeuchtigkeit
    00:00 +13°C° 0 mm 1 m/S 768 mmHg 93%
    01:00 +12°C° 0 mm 1 m/S 768 mmHg 95%
    02:00 +12°C° 0 mm 1 m/S 768 mmHg 97%
    03:00 +12°C° 0 mm 1 m/S 768 mmHg 96%
    04:00 +12°C° 0 mm 1 m/S 768 mmHg 95%
    05:00 +13°C° 0 mm 1 m/S 768 mmHg 93%
    06:00 +15°C° 0 mm 1 m/S 769 mmHg 83%
    07:00 +19°C° 0 mm 1 m/S 769 mmHg 72%
    08:00 +22°C° 0 mm 1 m/S 769 mmHg 61%
    09:00 +23°C° 0 mm 1 m/S 769 mmHg 57%
    10:00 +24°C° 0 mm 1 m/S 768 mmHg 53%
    11:00 +25°C° 0 mm 2 m/S 768 mmHg 49%
    12:00 +25°C° 0,2 mm 2 m/S 768 mmHg 54%
    13:00 +24°C° 0,2 mm 3 m/S 768 mmHg 59%
    14:00 +22°C° 0,2 mm 3 m/S 768 mmHg 64%
    15:00 +22°C° 0,2 mm 3 m/S 768 mmHg 66%
    16:00 +21°C° 0,2 mm 3 m/S 768 mmHg 69%
    17:00 +20°C° 0,2 mm 2 m/S 768 mmHg 71%
    18:00 +19°C° 0 mm 2 m/S 768 mmHg 77%
    19:00 +17°C° 0 mm 2 m/S 768 mmHg 83%
    20:00 +15°C° 0 mm 2 m/S 768 mmHg 88%
    21:00 +14°C° 0 mm 1 m/S 768 mmHg 90%
    22:00 +14°C° 0 mm 1 m/S 768 mmHg 91%
    23:00 +13°C° 0 mm 1 m/S 768 mmHg 93%

    26 November, Sonntag

    Zeit Temperatur Niederschläge Wind Luftdruck Luftfeuchtigkeit
    00:00 +13°C° 0 mm 1 m/S 768 mmHg 94%
    01:00 +12°C° 0 mm 1 m/S 768 mmHg 95%
    02:00 +12°C° 0 mm 1 m/S 768 mmHg 96%
    03:00 +12°C° 0 mm 1 m/S 768 mmHg 95%
    04:00 +13°C° 0 mm 1 m/S 768 mmHg 95%
    05:00 +13°C° 0 mm 1 m/S 768 mmHg 94%
    06:00 +16°C° 0 mm 1 m/S 768 mmHg 84%
    07:00 +19°C° 0 mm 1 m/S 768 mmHg 74%
    08:00 +22°C° 0 mm 1 m/S 768 mmHg 64%
    09:00 +23°C° 0 mm 1 m/S 768 mmHg 58%
    10:00 +25°C° 0 mm 2 m/S 767 mmHg 52%
    11:00 +26°C° 0 mm 2 m/S 767 mmHg 47%
    12:00 +26°C° 0 mm 2 m/S 767 mmHg 47%
    13:00 +25°C° 0 mm 3 m/S 767 mmHg 48%
    14:00 +25°C° 0 mm 3 m/S 766 mmHg 48%
    15:00 +24°C° 0 mm 3 m/S 766 mmHg 52%
    16:00 +23°C° 0 mm 2 m/S 766 mmHg 55%
    17:00 +21°C° 0 mm 2 m/S 766 mmHg 58%
    18:00 +20°C° 0 mm 1 m/S 767 mmHg 67%
    19:00 +18°C° 0 mm 1 m/S 767 mmHg 76%
    20:00 +14°C° 0 mm 0 m/S 767 mmHg 85%
    21:00 +14°C° 0 mm 1 m/S 768 mmHg 87%
    22:00 +13°C° 0 mm 1 m/S 768 mmHg 90%
    23:00 +13°C° 0 mm 1 m/S 768 mmHg 92%

    27 November, Montag

    Zeit Temperatur Niederschläge Wind Luftdruck Luftfeuchtigkeit
    00:00 +12°C° 0 mm 1 m/S 767 mmHg 93%
    01:00 +12°C° 0 mm 1 m/S 767 mmHg 93%
    02:00 +12°C° 0 mm 1 m/S 767 mmHg 94%
    03:00 +12°C° 0 mm 1 m/S 767 mmHg 93%
    04:00 +12°C° 0 mm 1 m/S 767 mmHg 91%
    05:00 +13°C° 0 mm 1 m/S 767 mmHg 89%
    06:00 +16°C° 0 mm 1 m/S 767 mmHg 79%
    07:00 +20°C° 0 mm 1 m/S 767 mmHg 68%
    08:00 +21°C° 0 mm 0 m/S 768 mmHg 57%
    09:00 +24°C° 0 mm 1 m/S 767 mmHg 54%
    10:00 +25°C° 0 mm 1 m/S 767 mmHg 50%
    11:00 +26°C° 0 mm 1 m/S 767 mmHg 47%
    12:00 +25°C° 0,2 mm 2 m/S 767 mmHg 51%
    13:00 +25°C° 0,2 mm 2 m/S 767 mmHg 55%
    14:00 +24°C° 0,2 mm 3 m/S 766 mmHg 59%
    15:00 +22°C° 0,1 mm 3 m/S 766 mmHg 60%
    16:00 +21°C° 0,1 mm 2 m/S 767 mmHg 61%
    17:00 +20°C° 0,1 mm 2 m/S 767 mmHg 63%
    18:00 +19°C° 0 mm 2 m/S 767 mmHg 67%
    19:00 +18°C° 0 mm 1 m/S 768 mmHg 71%
    20:00 +16°C° 0 mm 1 m/S 768 mmHg 75%
    21:00 +15°C° 0 mm 1 m/S 768 mmHg 78%
    22:00 +15°C° 0 mm 1 m/S 768 mmHg 81%
    23:00 +13°C° 0 mm 0 m/S 768 mmHg 85%

    28 November, Dienstag

    Zeit Temperatur Niederschläge Wind Luftdruck Luftfeuchtigkeit
    00:00 +13°C° 0 mm 1 m/S 768 mmHg 87%
    01:00 +13°C° 0 mm 1 m/S 768 mmHg 89%
    02:00 +13°C° 0 mm 1 m/S 768 mmHg 91%
    03:00 +13°C° 0 mm 1 m/S 768 mmHg 90%
    04:00 +13°C° 0 mm 1 m/S 768 mmHg 90%
    05:00 +13°C° 0 mm 1 m/S 768 mmHg 90%
    06:00 +15°C° 0 mm 1 m/S 768 mmHg 79%
    07:00 +17°C° 0 mm 0 m/S 768 mmHg 68%
    08:00 +20°C° 0 mm 0 m/S 768 mmHg 57%
    09:00 +23°C° 0 mm 1 m/S 768 mmHg 52%
    10:00 +24°C° 0 mm 1 m/S 768 mmHg 47%
    11:00 +25°C° 0 mm 2 m/S 767 mmHg 42%
    12:00 +25°C° 0 mm 2 m/S 767 mmHg 43%
    13:00 +25°C° 0 mm 3 m/S 767 mmHg 44%
    14:00 +24°C° 0 mm 3 m/S 767 mmHg 45%
    15:00 +22°C° 0 mm 3 m/S 767 mmHg 49%
    16:00 +21°C° 0 mm 4 m/S 767 mmHg 53%
    17:00 +20°C° 0 mm 4 m/S 767 mmHg 57%
    18:00 +19°C° 0 mm 3 m/S 767 mmHg 65%
    19:00 +17°C° 0 mm 3 m/S 767 mmHg 73%
    20:00 +15°C° 0 mm 2 m/S 768 mmHg 81%
    21:00 +15°C° 0 mm 2 m/S 768 mmHg 82%
    22:00 +15°C° 0 mm 2 m/S 768 mmHg 84%
    23:00 +14°C° 0 mm 2 m/S 768 mmHg 86%
    Mehr zeigen